| time (UTC) | temp F | wind direction | speed knots | gust knots | rain 1hr in | rain 24hr in | rain mn in | humidity % | barometer mb |
| 20260905062504 | 50 | 261 | 0.0 | 1.7 | 0.00 | 0.02 | 0.00 | 89 | 1022.6 |
| 20260905062004 | 50 | 261 | 0.0 | 1.7 | 0.00 | 0.02 | 0.00 | 89 | 1022.5 |
| 20260905060003 | 50 | 261 | 0.0 | 0.0 | 0.00 | 0.03 | 0.00 | 87 | 1022.1 |
| 20260905055003 | 51 | 261 | 0.9 | 1.7 | 0.00 | 0.03 | 0.00 | 86 | 1022.0 |
| 20260905054503 | 51 | 261 | 0.0 | 0.0 | 0.00 | 0.03 | 0.00 | 86 | 1022.0 |
| 20260905054003 | 51 | 261 | 0.0 | 0.0 | 0.00 | 0.03 | 0.00 | 86 | 1021.9 |
| 20260905053503 | 52 | 261 | 0.0 | 0.9 | 0.00 | 0.03 | 0.00 | 86 | 1021.7 |
| 20260905053004 | 52 | 261 | 0.9 | 2.6 | 0.00 | 0.04 | 0.00 | 86 | 1021.6 |
| 20260905052504 | 52 | 261 | 0.9 | 2.6 | 0.00 | 0.04 | 0.00 | 86 | 1021.6 |
| 20260905052004 | 52 | 263 | 1.7 | 2.6 | 0.00 | 0.04 | 0.00 | 86 | 1021.6 |
| 20260905051503 | 53 | 284 | 0.0 | 0.0 | 0.00 | 0.04 | 0.00 | 85 | 1021.5 |
| 20260905051004 | 53 | 284 | 0.0 | 0.0 | 0.00 | 0.04 | 0.00 | 84 | 1021.5 |
| 20260905050504 | 53 | 285 | 0.0 | 0.0 | 0.00 | 0.04 | 0.00 | 84 | 1021.3 |
| 20260905050003 | 53 | 285 | 0.0 | 1.7 | 0.00 | 0.04 | 0.00 | 84 | 1021.3 |
| 20260905045503 | 54 | 285 | 0.9 | 2.6 | 0.00 | 0.05 | 0.00 | 84 | 1021.2 |
| 20260905044504 | 54 | 275 | 2.6 | 7.0 | 0.00 | 0.05 | 0.00 | 84 | 1021.2 |
| 20260905043503 | 54 | 281 | 4.3 | 8.7 | 0.00 | 0.05 | 0.00 | 83 | 1021.1 |
| 20260905042504 | 55 | 288 | 6.1 | 10.4 | 0.00 | 0.05 | 0.00 | 83 | 1020.9 |
| 20260905042004 | 55 | 285 | 5.2 | 8.7 | 0.00 | 0.06 | 0.00 | 82 | 1020.9 |
| 20260905041004 | 55 | 299 | 5.2 | 8.7 | 0.00 | 0.07 | 0.00 | 82 | 1020.9 |
| 20260905040504 | 55 | 295 | 5.2 | 10.4 | 0.00 | 0.08 | 0.00 | 82 | 1020.9 |
| 20260905040004 | 55 | 301 | 5.2 | 8.7 | 0.00 | 0.08 | 0.00 | 82 | 1020.9 |
| 20260905034504 | 55 | 303 | 6.1 | 10.4 | 0.00 | 0.09 | 0.00 | 82 | 1020.8 |
| 20260905034003 | 55 | 307 | 4.3 | 10.4 | 0.00 | 0.10 | 0.00 | 82 | 1020.7 |
| 20260905033504 | 55 | 292 | 4.3 | 8.7 | 0.00 | 0.10 | 0.00 | 81 | 1020.7 |
| 20260905033003 | 55 | 277 | 2.6 | 10.4 | 0.00 | 0.11 | 0.00 | 81 | 1020.6 |
| 20260905032504 | 55 | 280 | 5.2 | 10.4 | 0.00 | 0.11 | 0.00 | 81 | 1020.5 |
| 20260905031004 | 55 | 298 | 6.1 | 11.3 | 0.00 | 0.12 | 0.00 | 81 | 1020.5 |
| 20260905030004 | 55 | 300 | 6.1 | 10.4 | 0.00 | 0.13 | 0.00 | 82 | 1020.4 |
| 20260905025503 | 55 | 288 | 5.2 | 8.7 | 0.00 | 0.13 | 0.00 | 82 | 1020.3 |
| 20260905025003 | 55 | 283 | 6.1 | 8.7 | 0.00 | 0.13 | 0.00 | 82 | 1020.3 |
| 20260905024504 | 55 | 297 | 5.2 | 11.3 | 0.00 | 0.14 | 0.00 | 82 | 1020.4 |
| 20260905024004 | 55 | 290 | 4.3 | 10.4 | 0.00 | 0.14 | 0.00 | 82 | 1020.3 |
| 20260905023503 | 55 | 287 | 5.2 | 10.4 | 0.00 | 0.14 | 0.00 | 83 | 1020.3 |
| 20260905023004 | 55 | 291 | 4.3 | 8.7 | 0.00 | 0.15 | 0.00 | 83 | 1020.3 |
| 20260905022503 | 55 | 264 | 1.7 | 6.1 | 0.00 | 0.15 | 0.00 | 83 | 1020.3 |
| 20260905022003 | 56 | 257 | 2.6 | 8.7 | 0.00 | 0.16 | 0.00 | 83 | 1020.2 |
| 20260905021503 | 56 | 280 | 5.2 | 10.4 | 0.00 | 0.16 | 0.00 | 83 | 1020.1 |
| 20260905021004 | 56 | 277 | 7.0 | 12.2 | 0.00 | 0.16 | 0.00 | 83 | 1020.0 |
| 20260905020504 | 56 | 275 | 5.2 | 12.2 | 0.00 | 0.16 | 0.00 | 83 | 1020.0 |
| 20260905020003 | 56 | 289 | 7.8 | 10.4 | 0.00 | 0.16 | 0.00 | 83 | 1020.0 |
| 20260905015503 | 56 | 289 | 8.7 | 12.2 | 0.00 | 0.16 | 0.00 | 83 | 1020.0 |
| 20260905015004 | 56 | 283 | 7.8 | 13.9 | 0.00 | 0.16 | 0.00 | 84 | 1019.8 |
| 20260905014503 | 56 | 286 | 7.0 | 11.3 | 0.00 | 0.16 | 0.00 | 84 | 1019.8 |
| 20260905014003 | 55 | 301 | 7.0 | 11.3 | 0.00 | 0.16 | 0.00 | 85 | 1019.9 |
| 20260905013503 | 55 | 289 | 4.3 | 10.4 | 0.00 | 0.16 | 0.00 | 86 | 1019.8 |
| 20260905012503 | 55 | 273 | 6.1 | 10.4 | 0.00 | 0.16 | 0.00 | 86 | 1019.7 |
| 20260905011503 | 55 | 269 | 7.8 | 11.3 | 0.00 | 0.16 | 0.00 | 87 | 1019.7 |
| 20260905011003 | 55 | 288 | 6.1 | 10.4 | 0.00 | 0.16 | 0.00 | 88 | 1019.6 |
| 20260905010503 | 54 | 286 | 5.2 | 10.4 | 0.00 | 0.16 | 0.00 | 89 | 1019.6 |
| 20260905010003 | 54 | 287 | 6.1 | 10.4 | 0.00 | 0.16 | 0.00 | 89 | 1019.6 |
| 20260905005504 | 54 | 277 | 4.3 | 8.7 | 0.00 | 0.16 | 0.00 | 89 | 1019.7 |
| 20260905005003 | 54 | 280 | 4.3 | 7.8 | 0.00 | 0.16 | 0.00 | 89 | 1019.6 |
| 20260905004004 | 54 | 254 | 3.5 | 6.1 | 0.00 | 0.16 | 0.00 | 88 | 1019.7 |
| 20260905003504 | 54 | 253 | 2.6 | 6.1 | 0.00 | 0.16 | 0.00 | 88 | 1019.6 |
| 20260905003003 | 54 | 241 | 2.6 | 5.2 | 0.00 | 0.16 | 0.00 | 88 | 1019.7 |
| 20260905002504 | 54 | 257 | 4.3 | 6.1 | 0.00 | 0.16 | 0.00 | 88 | 1019.7 |
| 20260905002004 | 54 | 254 | 2.6 | 6.1 | 0.00 | 0.16 | 0.00 | 88 | 1019.6 |
| 20260905001503 | 55 | 256 | 2.6 | 7.0 | 0.00 | 0.16 | 0.00 | 87 | 1019.6 |
| 20260905001003 | 55 | 261 | 0.9 | 2.6 | 0.00 | 0.16 | 0.00 | 87 | 1019.6 |
| 20260905000503 | 55 | 269 | 1.7 | 2.6 | 0.00 | 0.16 | 0.00 | 88 | 1019.6 |
| 20260905000003 | 55 | 267 | 1.7 | 7.8 | 0.00 | 0.16 | 0.00 | 88 | 1019.5 |
| 20260904234504 | 54 | 280 | 4.3 | 7.0 | 0.00 | 0.17 | 0.00 | 88 | 1019.3 |
| 20260904233003 | 55 | 284 | 2.6 | 2.6 | 0.00 | 0.17 | 0.00 | 87 | 1019.3 |
| 20260904232503 | 55 | 266 | 1.7 | 2.6 | 0.00 | 0.17 | 0.00 | 87 | 1019.2 |
| 20260904232003 | 55 | 265 | 1.7 | 5.2 | 0.00 | 0.17 | 0.00 | 87 | 1019.3 |
| 20260904231504 | 55 | 263 | 2.6 | 5.2 | 0.00 | 0.18 | 0.00 | 87 | 1019.3 |
| 20260904231004 | 55 | 244 | 1.7 | 6.1 | 0.00 | 0.18 | 0.00 | 87 | 1019.2 |
| 20260904230504 | 55 | 258 | 2.6 | 5.2 | 0.00 | 0.20 | 0.00 | 86 | 1019.1 |
| 20260904230003 | 55 | 269 | 3.5 | 6.1 | 0.00 | 0.20 | 0.00 | 86 | 1019.1 |
| 20260904225504 | 55 | 253 | 2.6 | 6.1 | 0.00 | 0.20 | 0.20 | 86 | 1019.1 |
| 20260904223503 | 56 | 246 | 2.6 | 4.3 | 0.00 | 0.20 | 0.20 | 85 | 1019.1 |
| 20260904223003 | 56 | 253 | 1.7 | 2.6 | 0.00 | 0.20 | 0.20 | 85 | 1019.0 |
| 20260904222503 | 56 | 247 | 2.6 | 7.0 | 0.00 | 0.20 | 0.20 | 85 | 1019.0 |
| 20260904222004 | 56 | 247 | 2.6 | 4.3 | 0.00 | 0.20 | 0.20 | 85 | 1018.9 |
| 20260904221504 | 56 | 273 | 2.6 | 7.0 | 0.00 | 0.20 | 0.20 | 85 | 1018.9 |
| 20260904220503 | 56 | 253 | 2.6 | 6.1 | 0.00 | 0.20 | 0.20 | 85 | 1018.9 |
| 20260904220003 | 56 | 250 | 2.6 | 6.1 | 0.00 | 0.20 | 0.20 | 85 | 1019.0 |
| 20260904215504 | 56 | 241 | 2.6 | 6.1 | 0.00 | 0.20 | 0.20 | 85 | 1019.0 |
| 20260904215003 | 56 | 253 | 4.3 | 7.0 | 0.00 | 0.21 | 0.20 | 85 | 1018.8 |
| 20260904214004 | 56 | 265 | 4.3 | 7.0 | 0.00 | 0.21 | 0.20 | 86 | 1018.7 |
| 20260904213504 | 56 | 266 | 4.3 | 7.0 | 0.00 | 0.21 | 0.20 | 86 | 1018.6 |
| 20260904213003 | 56 | 269 | 5.2 | 8.7 | 0.00 | 0.21 | 0.20 | 86 | 1018.5 |
| 20260904212504 | 56 | 251 | 5.2 | 7.8 | 0.00 | 0.21 | 0.20 | 87 | 1018.5 |
| 20260904212004 | 56 | 266 | 5.2 | 7.8 | 0.00 | 0.21 | 0.20 | 87 | 1018.5 |
| 20260904211003 | 56 | 269 | 3.5 | 7.0 | 0.00 | 0.21 | 0.20 | 87 | 1018.4 |
| 20260904210503 | 56 | 265 | 2.6 | 5.2 | 0.00 | 0.21 | 0.20 | 87 | 1018.4 |
| 20260904210004 | 56 | 260 | 4.3 | 7.8 | 0.00 | 0.22 | 0.20 | 87 | 1018.4 |
| 20260904205503 | 56 | 241 | 3.5 | 7.0 | 0.00 | 0.22 | 0.20 | 87 | 1018.4 |
| 20260904205004 | 56 | 249 | 3.5 | 6.1 | 0.00 | 0.24 | 0.20 | 87 | 1018.3 |
| 20260904204504 | 56 | 246 | 2.6 | 4.3 | 0.00 | 0.24 | 0.20 | 87 | 1018.2 |
| 20260904203504 | 56 | 265 | 2.6 | 6.1 | 0.00 | 0.24 | 0.20 | 86 | 1018.2 |
| 20260904203004 | 56 | 265 | 4.3 | 6.1 | 0.00 | 0.24 | 0.20 | 86 | 1018.2 |
| 20260904202503 | 56 | 262 | 2.6 | 6.1 | 0.00 | 0.24 | 0.20 | 85 | 1018.2 |
| 20260904201503 | 57 | 262 | 2.6 | 5.2 | 0.00 | 0.24 | 0.20 | 84 | 1018.2 |
| 20260904201003 | 57 | 260 | 3.5 | 5.2 | 0.00 | 0.24 | 0.20 | 84 | 1018.2 |
| 20260904200504 | 57 | 269 | 2.6 | 6.1 | 0.00 | 0.24 | 0.20 | 83 | 1018.2 |
| 20260904200004 | 58 | 264 | 2.6 | 2.6 | 0.00 | 0.24 | 0.20 | 83 | 1018.1 |
| 20260904195503 | 58 | 259 | 1.7 | 4.3 | 0.00 | 0.24 | 0.20 | 82 | 1018.1 |
| 20260904195004 | 58 | 253 | 2.6 | 5.2 | 0.00 | 0.24 | 0.20 | 82 | 1018.0 |
| 20260904194503 | 58 | 270 | 3.5 | 6.1 | 0.00 | 0.24 | 0.20 | 82 | 1018.0 |
| 20260904193504 | 59 | 252 | 2.6 | 7.0 | 0.00 | 0.24 | 0.20 | 81 | 1017.8 |
| 20260904193004 | 59 | 260 | 4.3 | 8.7 | 0.00 | 0.24 | 0.20 | 81 | 1017.8 |
| 20260904192504 | 59 | 261 | 5.2 | 7.8 | 0.00 | 0.24 | 0.20 | 81 | 1017.8 |
| 20260904192003 | 59 | 279 | 4.3 | 8.7 | 0.00 | 0.24 | 0.20 | 80 | 1017.8 |
| 20260904191504 | 59 | 273 | 6.1 | 10.4 | 0.00 | 0.24 | 0.20 | 80 | 1017.8 |
| 20260904191004 | 59 | 269 | 6.1 | 10.4 | 0.00 | 0.24 | 0.20 | 80 | 1017.7 |
| 20260904190504 | 60 | 288 | 6.1 | 10.4 | 0.00 | 0.24 | 0.20 | 79 | 1017.6 |
| 20260904190004 | 60 | 282 | 5.2 | 8.7 | 0.00 | 0.24 | 0.20 | 79 | 1017.6 |
| 20260904185503 | 60 | 270 | 5.2 | 12.2 | 0.00 | 0.24 | 0.20 | 79 | 1017.5 |
| 20260904185003 | 60 | 272 | 5.2 | 11.3 | 0.00 | 0.24 | 0.20 | 78 | 1017.5 |
| 20260904184504 | 60 | 270 | 7.8 | 10.4 | 0.00 | 0.24 | 0.20 | 78 | 1017.6 |
| 20260904184004 | 61 | 267 | 7.8 | 11.3 | 0.00 | 0.24 | 0.20 | 78 | 1017.5 |
| 20260904183003 | 61 | 259 | 6.1 | 10.4 | 0.00 | 0.24 | 0.20 | 77 | 1017.5 |
| 20260904182503 | 61 | 280 | 4.3 | 8.7 | 0.00 | 0.24 | 0.20 | 77 | 1017.5 |
| 20260904182003 | 61 | 287 | 5.2 | 11.3 | 0.00 | 0.24 | 0.20 | 77 | 1017.5 |
| 20260904181004 | 61 | 267 | 6.1 | 10.4 | 0.00 | 0.24 | 0.20 | 76 | 1017.3 |
| 20260904180004 | 62 | 262 | 7.0 | 14.8 | 0.00 | 0.24 | 0.20 | 75 | 1017.1 |
| 20260904175503 | 62 | 291 | 5.2 | 13.0 | 0.00 | 0.24 | 0.20 | 75 | 1017.1 |
| 20260904175004 | 62 | 268 | 7.8 | 13.9 | 0.00 | 0.24 | 0.20 | 75 | 1017.1 |
| 20260904174504 | 63 | 257 | 8.7 | 14.8 | 0.00 | 0.24 | 0.20 | 75 | 1017.1 |
| 20260904173504 | 63 | 274 | 6.1 | 10.4 | 0.00 | 0.24 | 0.20 | 74 | 1017.0 |
| 20260904172504 | 64 | 289 | 7.8 | 13.9 | 0.00 | 0.25 | 0.20 | 74 | 1017.1 |
| 20260904172004 | 63 | 269 | 6.1 | 11.3 | 0.00 | 0.25 | 0.20 | 75 | 1017.0 |
| 20260904171503 | 63 | 275 | 6.1 | 10.4 | 0.00 | 0.25 | 0.20 | 75 | 1017.0 |
| 20260904170003 | 62 | 281 | 7.8 | 13.0 | 0.00 | 0.25 | 0.20 | 75 | 1016.8 |
| 20260904165503 | 62 | 258 | 5.2 | 10.4 | 0.00 | 0.25 | 0.20 | 75 | 1016.8 |
| 20260904165004 | 62 | 286 | 6.1 | 12.2 | 0.00 | 0.25 | 0.20 | 75 | 1016.8 |
| 20260904164004 | 62 | 250 | 5.2 | 8.7 | 0.00 | 0.25 | 0.20 | 75 | 1016.6 |
| 20260904163503 | 62 | 261 | 8.7 | 12.2 | 0.00 | 0.25 | 0.20 | 74 | 1016.5 |
| 20260904162503 | 62 | 277 | 7.8 | 11.3 | 0.00 | 0.26 | 0.20 | 72 | 1016.4 |
| 20260904162004 | 63 | 273 | 8.7 | 13.9 | 0.00 | 0.26 | 0.20 | 72 | 1016.5 |
| 20260904161504 | 63 | 274 | 8.7 | 15.6 | 0.00 | 0.26 | 0.20 | 72 | 1016.4 |
| 20260904161003 | 63 | 284 | 7.0 | 14.8 | 0.00 | 0.26 | 0.20 | 72 | 1016.3 |
| 20260904160504 | 63 | 295 | 8.7 | 14.8 | 0.00 | 0.26 | 0.20 | 72 | 1016.2 |
| 20260904160003 | 63 | 285 | 7.8 | 12.2 | 0.00 | 0.26 | 0.20 | 72 | 1016.3 |
| 20260904155504 | 63 | 280 | 7.0 | 12.2 | 0.00 | 0.26 | 0.20 | 73 | 1016.3 |
| 20260904155004 | 63 | 260 | 7.8 | 17.4 | 0.00 | 0.26 | 0.20 | 72 | 1016.2 |
| 20260904154503 | 64 | 283 | 10.4 | 15.6 | 0.00 | 0.26 | 0.20 | 71 | 1016.2 |
| 20260904154004 | 64 | 271 | 9.6 | 13.9 | 0.00 | 0.26 | 0.20 | 71 | 1016.3 |
| 20260904153503 | 64 | 262 | 7.8 | 12.2 | 0.00 | 0.26 | 0.20 | 70 | 1016.3 |
| 20260904153004 | 64 | 271 | 7.8 | 11.3 | 0.00 | 0.26 | 0.20 | 70 | 1016.3 |
| 20260904152004 | 64 | 266 | 8.7 | 15.6 | 0.00 | 0.26 | 0.20 | 71 | 1016.1 |
| 20260904151003 | 64 | 257 | 5.2 | 10.4 | 0.00 | 0.26 | 0.20 | 72 | 1016.1 |
| 20260904150504 | 64 | 275 | 8.7 | 12.2 | 0.00 | 0.26 | 0.20 | 71 | 1016.0 |
| 20260904145504 | 65 | 247 | 7.8 | 15.6 | 0.00 | 0.26 | 0.20 | 70 | 1016.1 |
| 20260904145003 | 65 | 281 | 7.8 | 14.8 | 0.00 | 0.26 | 0.20 | 70 | 1015.9 |
| 20260904144504 | 65 | 272 | 10.4 | 14.8 | 0.00 | 0.26 | 0.20 | 70 | 1015.8 |
| 20260904144004 | 65 | 259 | 8.7 | 13.9 | 0.00 | 0.26 | 0.20 | 70 | 1015.8 |
| 20260904143003 | 65 | 262 | 8.7 | 17.4 | 0.00 | 0.26 | 0.20 | 70 | 1015.8 |
| 20260904142504 | 65 | 245 | 9.6 | 15.6 | 0.00 | 0.26 | 0.20 | 70 | 1015.8 |
| 20260904142004 | 65 | 277 | 7.0 | 15.6 | 0.00 | 0.26 | 0.20 | 70 | 1015.7 |
| 20260904141004 | 65 | 278 | 8.7 | 17.4 | 0.00 | 0.26 | 0.20 | 68 | 1015.4 |
| 20260904140503 | 66 | 280 | 10.4 | 17.4 | 0.00 | 0.26 | 0.20 | 69 | 1015.4 |
| 20260904140004 | 66 | 245 | 8.7 | 14.8 | 0.00 | 0.26 | 0.20 | 68 | 1015.5 |
| 20260904135503 | 66 | 257 | 8.7 | 14.8 | 0.00 | 0.26 | 0.20 | 69 | 1015.4 |
| 20260904135003 | 66 | 267 | 10.4 | 17.4 | 0.00 | 0.26 | 0.20 | 69 | 1015.3 |
| 20260904134504 | 66 | 286 | 7.8 | 12.2 | 0.00 | 0.26 | 0.20 | 69 | 1015.3 |
| 20260904134004 | 66 | 253 | 8.7 | 15.6 | 0.00 | 0.26 | 0.20 | 70 | 1015.3 |
| 20260904133503 | 66 | 276 | 8.7 | 15.6 | 0.00 | 0.26 | 0.20 | 70 | 1015.3 |
| 20260904133004 | 66 | 266 | 10.4 | 15.6 | 0.00 | 0.26 | 0.20 | 70 | 1015.3 |
| 20260904132503 | 65 | 260 | 9.6 | 13.9 | 0.00 | 0.26 | 0.20 | 71 | 1015.2 |
| 20260904132003 | 65 | 275 | 8.7 | 13.9 | 0.00 | 0.26 | 0.20 | 71 | 1015.0 |
| 20260904131504 | 65 | 257 | 10.4 | 14.8 | 0.00 | 0.26 | 0.20 | 71 | 1015.1 |
| 20260904131003 | 65 | 269 | 8.7 | 14.8 | 0.00 | 0.26 | 0.20 | 71 | 1015.1 |
| 20260904130504 | 65 | 268 | 7.8 | 15.6 | 0.00 | 0.26 | 0.20 | 69 | 1015.2 |
| 20260904130004 | 65 | 276 | 9.6 | 13.0 | 0.00 | 0.26 | 0.20 | 69 | 1015.2 |
| 20260904125504 | 64 | 268 | 8.7 | 15.6 | 0.00 | 0.26 | 0.20 | 71 | 1015.1 |
| 20260904125004 | 64 | 265 | 11.3 | 15.6 | 0.00 | 0.26 | 0.20 | 70 | 1015.2 |
| 20260904123004 | 64 | 250 | 7.8 | 13.9 | 0.00 | 0.26 | 0.20 | 71 | 1015.0 |
| 20260904122504 | 64 | 265 | 6.1 | 13.9 | 0.00 | 0.26 | 0.20 | 71 | 1015.0 |
| 20260904121503 | 64 | 282 | 7.8 | 13.0 | 0.00 | 0.26 | 0.20 | 69 | 1014.8 |
| 20260904121004 | 64 | 282 | 9.6 | 15.6 | 0.00 | 0.26 | 0.20 | 68 | 1014.7 |
| 20260904120504 | 64 | 290 | 8.7 | 17.4 | 0.00 | 0.26 | 0.20 | 68 | 1014.6 |
| 20260904115503 | 64 | 289 | 12.2 | 20.0 | 0.00 | 0.26 | 0.20 | 68 | 1014.4 |
| 20260904114503 | 65 | 276 | 10.4 | 17.4 | 0.00 | 0.26 | 0.20 | 71 | 1014.3 |
| 20260904114004 | 65 | 268 | 10.4 | 17.4 | 0.00 | 0.26 | 0.20 | 70 | 1014.2 |
| 20260904113503 | 65 | 268 | 8.7 | 13.0 | 0.00 | 0.26 | 0.20 | 70 | 1014.2 |
| 20260904113003 | 65 | 279 | 6.1 | 13.0 | 0.00 | 0.26 | 0.20 | 71 | 1014.2 |
| 20260904112503 | 65 | 299 | 9.6 | 13.0 | 0.00 | 0.26 | 0.20 | 70 | 1014.1 |
| 20260904112004 | 65 | 274 | 9.6 | 14.8 | 0.00 | 0.26 | 0.20 | 69 | 1013.9 |
| 20260904111004 | 65 | 292 | 10.4 | 17.4 | 0.00 | 0.26 | 0.20 | 69 | 1013.8 |
| 20260904110504 | 65 | 297 | 10.4 | 17.4 | 0.00 | 0.26 | 0.20 | 69 | 1013.9 |
| 20260904110003 | 65 | 280 | 10.4 | 17.4 | 0.00 | 0.26 | 0.20 | 68 | 1014.0 |
| 20260904105004 | 65 | 288 | 11.3 | 19.1 | 0.00 | 0.26 | 0.20 | 69 | 1013.7 |
| 20260904104504 | 66 | 279 | 12.2 | 17.4 | 0.00 | 0.26 | 0.20 | 72 | 1013.7 |
| 20260904103504 | 66 | 268 | 9.6 | 12.2 | 0.00 | 0.26 | 0.20 | 76 | 1013.4 |
| 20260904103003 | 65 | 271 | 6.1 | 12.2 | 0.00 | 0.26 | 0.20 | 76 | 1013.2 |
| 20260904102504 | 65 | 259 | 7.8 | 12.2 | 0.00 | 0.26 | 0.20 | 77 | 1013.4 |
| 20260904102004 | 64 | 273 | 8.7 | 13.0 | 0.00 | 0.26 | 0.20 | 77 | 1013.3 |
| 20260904101504 | 64 | 287 | 8.7 | 14.8 | 0.00 | 0.26 | 0.20 | 77 | 1013.3 |
| 20260904101004 | 64 | 287 | 8.7 | 13.9 | 0.00 | 0.26 | 0.20 | 79 | 1013.3 |
| 20260904100004 | 64 | 268 | 7.8 | 12.2 | 0.00 | 0.26 | 0.20 | 82 | 1013.1 |
| 20260904095504 | 64 | 278 | 7.8 | 13.9 | 0.00 | 0.26 | 0.20 | 84 | 1013.1 |
| 20260904095003 | 63 | 277 | 7.8 | 12.2 | 0.00 | 0.26 | 0.20 | 85 | 1013.2 |
| 20260904094003 | 63 | 267 | 8.7 | 14.8 | 0.00 | 0.26 | 0.20 | 86 | 1013.1 |
| 20260904093503 | 63 | 273 | 7.8 | 13.9 | 0.00 | 0.26 | 0.20 | 87 | 1013.1 |
| 20260904092504 | 62 | 249 | 7.8 | 13.0 | 0.00 | 0.26 | 0.20 | 88 | 1013.0 |
| 20260904092003 | 62 | 262 | 6.1 | 11.3 | 0.00 | 0.26 | 0.20 | 89 | 1013.0 |
| 20260904091503 | 62 | 272 | 5.2 | 13.0 | 0.00 | 0.26 | 0.20 | 89 | 1013.0 |
| 20260904091004 | 62 | 285 | 7.8 | 11.3 | 0.00 | 0.26 | 0.20 | 89 | 1012.9 |
| 20260904090504 | 62 | 262 | 7.0 | 11.3 | 0.00 | 0.26 | 0.20 | 89 | 1012.8 |
| 20260904090004 | 62 | 263 | 7.8 | 12.2 | 0.00 | 0.26 | 0.20 | 89 | 1012.6 |
| 20260904085503 | 62 | 271 | 9.6 | 13.9 | 0.00 | 0.26 | 0.20 | 90 | 1012.5 |
| 20260904085004 | 62 | 245 | 8.7 | 12.2 | 0.00 | 0.26 | 0.20 | 91 | 1012.5 |
| 20260904084503 | 61 | 260 | 7.0 | 13.0 | 0.00 | 0.26 | 0.20 | 91 | 1012.3 |
| 20260904084003 | 61 | 261 | 8.7 | 13.9 | 0.00 | 0.26 | 0.20 | 91 | 1012.3 |
| 20260904083503 | 61 | 272 | 7.8 | 10.4 | 0.00 | 0.26 | 0.20 | 92 | 1012.3 |
| 20260904083003 | 61 | 264 | 7.0 | 11.3 | 0.00 | 0.26 | 0.20 | 92 | 1012.3 |
| 20260904082504 | 61 | 250 | 5.2 | 10.4 | 0.00 | 0.26 | 0.20 | 92 | 1012.1 |
| 20260904082004 | 61 | 263 | 7.8 | 12.2 | 0.00 | 0.26 | 0.20 | 92 | 1012.3 |
| 20260904081004 | 60 | 285 | 7.0 | 11.3 | 0.00 | 0.26 | 0.20 | 92 | 1012.4 |
| 20260904080003 | 60 | 244 | 7.0 | 12.2 | 0.00 | 0.26 | 0.20 | 93 | 1012.3 |
| 20260904075503 | 60 | 257 | 4.3 | 10.4 | 0.00 | 0.26 | 0.20 | 93 | 1012.2 |
| 20260904075004 | 60 | 250 | 5.2 | 7.8 | 0.01 | 0.26 | 0.20 | 93 | 1012.2 |
| 20260904074503 | 60 | 260 | 6.1 | 10.4 | 0.01 | 0.26 | 0.20 | 93 | 1012.1 |
| 20260904073504 | 60 | 255 | 7.0 | 12.2 | 0.02 | 0.26 | 0.20 | 93 | 1011.9 |
| 20260904073003 | 60 | 261 | 7.8 | 12.2 | 0.02 | 0.27 | 0.20 | 93 | 1011.9 |
| 20260904072504 | 60 | 262 | 6.1 | 12.2 | 0.02 | 0.27 | 0.20 | 93 | 1012.0 |
| 20260904071503 | 60 | 248 | 7.8 | 11.3 | 0.02 | 0.27 | 0.20 | 93 | 1011.6 |
| 20260904071003 | 60 | 231 | 6.1 | 12.2 | 0.02 | 0.27 | 0.20 | 93 | 1011.6 |
| 20260904070504 | 60 | 236 | 7.8 | 12.2 | 0.02 | 0.27 | 0.20 | 93 | 1011.5 |
| 20260904070004 | 60 | 254 | 5.2 | 11.3 | 0.03 | 0.27 | 0.20 | 92 | 1011.5 |
| 20260904065503 | 60 | 264 | 5.2 | 12.2 | 0.03 | 0.27 | 0.20 | 92 | 1011.5 |
| 20260904065004 | 60 | 243 | 6.1 | 13.0 | 0.02 | 0.26 | 0.19 | 92 | 1011.5 |
| 20260904064003 | 61 | 265 | 5.2 | 8.7 | 0.02 | 0.26 | 0.19 | 92 | 1011.3 |
| 20260904063503 | 61 | 267 | 6.1 | 13.0 | 0.02 | 0.25 | 0.18 | 92 | 1011.4 |
| 20260904063004 | 61 | 296 | 5.2 | 11.3 | 0.02 | 0.25 | 0.18 | 92 | 1011.4 |